www.pogodaiklimat.ru

Погода и климат >> Архив погоды >> Индонезия >> Денпасар


ПОГОДА в Денпасаре

  • Прогноз погоды в Денпасаре
  • Монитор погоды в Денпасаре

АРХИВ ПОГОДЫ в Денпасаре

Время (UTC), дата Ветер
(напр.,м/с)
 
Видим.   Явления Облачность Т
(С)
Тd
(С)
f
(%)
Тe
(С)
Тes
(С)
Комфортность P
(гПа)
Po
(гПа)
Тmin
(С)
Tmax
(С)
R
(мм)
R24
(мм)
S
(см)
00 12.08 СВ 3 10 км 5/1 500 м
[Cu med, cong Ci fib]
+25.9 +21.8 78 +33 +36 очень
душно
1013.5 1013.0 +23.6
03 12.08 В 5 10 км 5/3 500 м
[Cu med, cong Ac trans Ci fib]
+28.1 +22.2 70 +37 +42 очень
душно
1013.6 1013.1
06 12.08 ЮВ 5 10 км 6/3 450 м
[Cu med, cong Ac trans Ci fib]
+28.4 +22.8 72 +38 +42 очень
душно
1011.0 1010.5
09 12.08 ЮВ 4 10 км 8/5 500 м
[Cu med, cong Ac trans Ci fib]
+27.1 +23.2 79 +36 +37 очень
душно
1010.7 1010.2
12 12.08 ЮВ 3 10 км 9/3 500 м
[Cu med, cong Ac trans Ci fib]
+26.3 +23.4 84 +36 +36 очень
душно
1012.4 1011.9 +29.4
15 12.08 СЗ 2 10 км 6/3 500 м
[Cu med, cong Ac trans Ci fib]
+25.4 +22.9 86 +34 +34 очень
душно
1012.8 1012.3
18 12.08 З 2 10 км 5/1 300 м
[Cu med, cong Ac trans Ci fib]
+24.6 +23.2 92 +33 +33 очень
душно
1012.5 1012.0
21 12.08 ЮВ 2 8000 м 9/6 330 м
[Cu med, cong Ac trans Ci fib]
+24.9 +23.1 90 +33 +33 очень
душно
1012.3 1011.8
00 13.08 С 4 2000 м сильн. дождь 10/6 420 м
[Cu med, cong Ac trans Ci fib]
+24.1 +23.1 94 +32 +33 очень
душно
1013.9 1013.4 +23.9 16
03 13.08 С 1 3000 м дождь 10/6 450 м
[Cu med, cong Ac As Ci sp]
+24.5 +23.1 92 +33 +37 очень
душно
1014.1 1013.6 13
06 13.08 ЮВ 4 10 км {дождь} 8/4 480 м
[Cu med, cong Ac trans Ci fib]
+28.4 +23.6 75 +39 +43 очень
душно
1012.0 1011.5 0.5
09 13.08 ЮВ 4 10 км 8/5 480 м
[Cu med, cong Ac trans Ci fib]
+26.8 +23.1 80 +36 +36 очень
душно
1011.8 1011.3
12 13.08 В 4 10 км 9/5 450 м
[Cu med, cong Ac trans Ci fib]
+25.7 +22.6 83 +34 +34 очень
душно
1013.4 1012.9 +28.9
15 13.08 В 3 10 км 6/3 480 м
[Cu med, cong Ac trans Ci fib]
+25.2 +22.7 86 +33 +33 очень
душно
1014.0 1013.5
18 13.08 ЮВ 3 10 км 8/5 480 м
[Cu med, cong Ac trans Ci fib]
+25.3 +23.0 87 +34 +34 очень
душно
1013.3 1012.8
21 13.08 ЮВ 3 10 км 8/5 400 м
[Cu med, cong Ac trans Ci fib]
+25.1 +22.8 87 +33 +33 очень
душно
1013.3 1012.8
00 14.08 ЮВ 5 10 км 9/6 400 м
[Cu med, cong Ac trans Ci fib]
+25.5 +22.6 84 +34 +34 очень
душно
1015.0 1014.5 +23.9 13
03 14.08 В 6 10 км 6/3 480 м
[Cu med, cong Ac trans Ci fib]
+28.2 +23.5 76 +38 +42 очень
душно
1015.3 1014.8
06 14.08 В 7 10 км 5/4 500 м
[Cu hum As op Ci fib]
+28.4 +23.4 74 +38 +41 очень
душно
1012.3 1011.8
09 14.08 ЮВ 4 10 км 4/1 500 м
[Cu med, cong Ci fib]
+27.5 +22.8 76 +37 +38 очень
душно
1011.1 1010.6
12 14.08 В 4 10 км 10/3 500 м
[Cu med, cong Ac trans Ci fib]
+25.8 +22.9 84 +34 +34 очень
душно
1013.2 1012.7 +29.0
15 14.08 В 5 10 км 5/1 500 м
[Cu med, cong Ci fib]
+25.3 +22.6 85 +33 +33 очень
душно
1014.2 1013.7
18 14.08 В 4 10 км 9/6 500 м
[Cu med, cong Ac trans Ci fib]
+25.4 +22.0 81 +33 +33 очень
душно
1014.0 1013.5
21 14.08 В 4 10 км 4/1 500 м
[Cu med, cong Ci fib]
+24.7 +22.0 85 +32 +32 очень
душно
1013.6 1013.1
00 15.08 В 5 10 км 6/1 500 м
[Cu med, cong Ac trans Ci fib]
+25.9 +21.6 77 +33 +34 очень
душно
1015.6 1015.1 +24.6
03 15.08 В 5 10 км 3/1 500 м
[Cu med, cong Ci fib]
+28.3 +20.7 63 +35 +44 очень
душно
1015.6 1015.1
06 15.08 ЮВ 5 10 км 3/1 500 м
[Cu med, cong Ci fib]
+28.0 +21.2 67 +35 +43 очень
душно
1013.1 1012.6
09 15.08 ЮВ 4 10 км 3/1 500 м
[Cu med, cong Ci fib]
+27.3 +20.0 64 +33 +34 очень
душно
1012.3 1011.8
12 15.08 ЮВ 4 10 км 6/4 480 м
[Cu med, cong Ci fib]
+25.2 +22.0 82 +32 +32 очень
душно
1014.0 1013.5 +29.1
15 15.08 В 3 10 км 6/4 480 м
[Cu med, cong Ci fib]
+24.9 +21.7 82 +32 +32 очень
душно
1015.3 1014.8
18 15.08 В 4 10 км 6/3 500 м
[Cu med, cong Ci fib]
+24.7 +21.3 81 +31 +31 очень
душно
1013.8 1013.3
21 15.08 ЮВ 4 10 км 9/5 500 м
[Cu med, cong Ac trans Ci fib]
+24.7 +20.9 79 +31 +31 очень
душно
1013.5 1013.0
00 16.08 ЮВ 4 10 км 5/1 500 м
[Cu med, cong Ac trans Ci fib]
+25.7 +20.8 74 +32 +34 очень
душно
1015.1 1014.6 +24.4
03 16.08 В 5 10 км 6/3 500 м
[Cu med, cong Ac trans Ci fib]
+28.3 +21.5 67 +36 +41 очень
душно
1015.5 1015.0
06 16.08 ЮВ 5 10 км 8/5 500 м
[Cu med, cong Ac trans Ci fib]
+27.9 +21.6 69 +36 +39 очень
душно
1013.6 1013.1
09 16.08 ЮВ 5 10 км 8/3 480 м
[Cu med, cong Ac trans Ci fib]
+26.2 +21.1 74 +33 +34 очень
душно
1012.9 1012.4
12 16.08 ЮВ 4 10 км 9/6 500 м
[Cu Sc Ac trans Ci fib]
+25.1 +21.1 78 +32 +32 очень
душно
1014.3 1013.8 +28.8
15 16.08 ЮВ 3 10 км 9/6 540 м
[Cu med, cong Ac trans Ci fib]
+24.9 +21.3 80 +31 +31 очень
душно
1015.7 1015.2
18 16.08 ЮВ 3 10 км 9/5 480 м
[Cu med, cong Ac trans Ci fib]
+24.6 +20.8 79 +31 +31 очень
душно
1015.0 1014.5
21 16.08 ЮВ 4 10 км 9/4 500 м
[Cu med, cong Ac trans Ci fib]
+24.5 +20.5 78 +30 +30 очень
душно
1014.5 1014.0
00 17.08 В 4 10 км 5/3 500 м
[Cu med, cong Ac trans Ci fib]
+25.6 +20.5 73 +32 +33 очень
душно
1015.9 1015.4 +24.3
03 17.08 В 5 10 км 3/3 500 м
[Cu med, cong Ci fib]
+27.3 +20.5 66 +34 +41 очень
душно
1016.6 1016.1
06 17.08 В 5 10 км 3/1 500 м
[Cu med, cong Ci fib]
+27.8 +20.0 63 +34 +41 очень
душно
1014.4 1013.9 0.0
09 17.08 ЮВ 5 10 км 5/3 500 м
[Cu med, cong Ci fib]
+26.5 +20.9 71 +33 +34 очень
душно
1013.8 1013.3
12 17.08 ЮВ 4 10 км 6/4 500 м
[Cu med, cong Ac trans Ci fib]
+24.9 +21.1 79 +31 +31 очень
душно
1015.4 1015.0 +28.5
15 17.08 ЮВ 4 10 км 6/3 500 м
[Cu med, cong Ac trans Ci fib]
+24.9 +20.9 78 +31 +31 очень
душно
1016.0 1015.5
18 17.08 ЮВ 4 10 км 9/6 500 м
[Cu med, cong Ac trans Ci fib]
+24.8 +20.6 77 +31 +31 очень
душно
1014.7 1014.2
21 17.08 В 4 10 км 9/6 500 м
[Cu Sc Ac trans Ci fib]
+24.5 +20.3 77 +30 +30 очень
душно
1014.1 1013.6
00 18.08 В 4 10 км 8/3 500 м
[Cu med, cong Ac trans Ci fib]
+25.0 +20.4 76 +31 +32 очень
душно
1015.7 1015.2 +24.1
03 18.08 В 5 10 км 6/3 500 м
[Cu med, cong Ac trans Ci fib]
+27.2 +19.9 64 +33 +38 очень
душно
1016.0 1015.5
06 18.08 ЮВ 6 10 км 4/1 500 м
[Cu med, cong Ci fib]
+27.4 +19.9 64 +34 +39 очень
душно
1013.5 1013.0
09 18.08 ЮВ 5 10 км 4/1 500 м
[Cu med, cong Ci fib]
+26.4 +21.1 73 +33 +34 очень
душно
1012.9 1012.4
12 18.08 ЮВ 4 10 км 4/1 500 м
[Cu med, cong Ci fib]
+24.7 +20.5 77 +31 +31 очень
душно
1014.7 1014.2 +28.2
15 18.08 В 5 10 км 4/1 500 м
[Cu med, cong Ac trans Ci fib]
+24.8 +19.9 74 +30 +30 душно 1015.8 1015.3
18 18.08 В 4 10 км 6/3 500 м
[Cu med, cong Ac trans Ci fib]
+24.6 +20.2 77 +30 +30 очень
душно
1015.2 1014.7
21 18.08 ЮВ 3 10 км 9/6 480 м
[Cu med, cong Ac trans Ci fib]
+24.5 +20.3 77 +30 +30 очень
душно
1015.0 1014.5

 

Местоположение метеостанции Денпасар (Индонезия): широта -8.75 долгота 115.16 высота над уровнем моря 1 м.

В архиве по умолчанию представлена погода в Денпасаре за последнюю неделю. Архивные данные за месяц целиком и за предыдущие месяцы, начиная с января 2011 года, Вы можете получить, выбрав интересующий диапазон дат из раскрывающегося списка и нажав кнопку "Ввод!".


*Определитесь, кто Вы:
робот инопланетянин человек

Внимание! Время в таблицах - всемирное. Для получения местного времени необходимо прибавить поправку, которая равна 8 ч.

Смотрите также архив погоды в соседних городах и на ближайших метеорологических станциях:

Погода в Матараме (Индонезия) (102 км)
Погода в Банюванги (Индонезия) (104 км)
Погода в Калиянджете (Индонезия) (231 км)
Погода в Сурабая Геданган (Индонезия) (233 км)
Погода в Сумбава-Бесаре (Индонезия) (249 км)
Погода в Аэропорту Джуанда (Индонезия) (306 км)
Погода в Сурабая Перак (Индонезия) (319 км)
Погода в Биме (Индонезия) (390 км)
Погода в Сангкапуре (Индонезия) (427 км)
Погода в Семаранге (Индонезия) (560 км)

Пояснения к столбцам:

Ветер - указаны скорость ветра в м/с - средняя за 10 мин, порывы в срок и между сроками (в фигурных скобках) и направление, откуда дует ветер: С - северный, СВ - северо-восточный, В - восточный, ЮВ - юго-восточный, Ю - южный, ЮЗ - юго-западный, З - западный, СЗ - северо-западный.
Видимость - горизонтальная дальность видимости в метрах или километрах. При видимости от 1 до 10 км при отсутствии осадков обычно наблюдается дымка, при ухудшении видимости до 1 км и менее - туман. В сухую погоду видимость может ухудшаться дымом, пылью или мглою.
Явления - указаны атмосферные явления, наблюдавшиеся в срок или в последний час перед сроком; фигурными скобками обозначены явления, наблюдавшиеся между сроками (за 1-3 часа до срока); квадратными скобками обозначены град или гололедные отложения с указанием их диаметра в мм.
Облачность - указаны через наклонную черту общая и нижняя облачность в баллах и высота нижней границы облаков в метрах; квадратными скобками обозначены формы облаков: Ci - перистые, Cs - перисто-слоистые, Cc - перисто-кучевые, Ac - высококучевые, As - высокослоистые, Sc - слоисто-кучевые, Ns - слоисто-дождевые, Cu - кучевые, Cb - кучево-дождевые. Подробнее классификацию облаков см. в Атласе облаков (PDF).
T - Температура воздуха - температура, измеренная на высоте 2 м над землей.
Td - Температура точки росы - температура, при понижении до которой содержащийся в воздухе водяной пар достигнет насыщения.
f - Относительная влажность воздуха - влажноcть воздуха, измеренная на высоте 2 м над землей.
Te - Эффективная температура - температура, которую ощущает одетый по сезону человек в тени. Характеристика душности погоды. При расчете учитывается влияние влажности воздуха и скорости ветра на теплоощущения человека.
Tes - Эффективная температура на солнце - температура, которую ощущает человек, с поправкой на солнечный нагрев. Характеристика знойности погоды. Зависит от высоты солнца над горизонтом, облачности и скорости ветра. Ночью, в пасмурную погоду, а также при ветре 12 м/с и более поправка равна нулю.
P - Атмосферное давление - приведенное к уровню моря атмосферное давление.
Po - Атмосферное давление - измеренное на уровне метеостанции атмосферное давление.
Tmin - Минимальная температура - минимум температуры воздуха на высоте 2 м над землей.
Tmax - Максимальная температура - максимум температуры воздуха на высоте 2 м над землей.
R - Количество осадков - Количество выпавших осадков за период времени, мм. При наведении курсора мыши на число - период времени, за который выпало указанное количество осадков.
R24 - Количество осадков - Количество выпавших осадков за 24 часа, мм.
S - Снежный покров - Высота снежного покрова, см. При наведении курсора мыши на число - состояние снежного покрова и степень покрытия местности в баллах.